Regional Weather Roundup
Issued by NWS Cleveland, OH

Home | Current Version | Previous Version | Graphics & Text | Print | Product List | Glossary On
Versions: 1 2 3 4 5 6 7 8 9 10 11 12 13 14 15 16 17 18 19 20 21 22 23 24 25 26 27 28 29 30 31 32 33 34 35 36 37 38 39 40 41 42 43 44 45 46 47 48 49 50
000
ASUS41 KCLE 311502
RWRCLE
OHIO REGIONAL WEATHER ROUNDUP
NATIONAL WEATHER SERVICE CLEVELAND, OH
1100 AM EDT TUE MAY 31 2016

NOTE: "FAIR" INDICATES FEW OR NO CLOUDS BELOW 12,000 FEET WITH NO
SIGNIFICANT WEATHER AND/OR OBSTRUCTIONS TO VISIBILITY.

OHZ001>008-015>018-024>027-034-035-043-044-311600-
   NORTHWEST OHIO

CITY           SKY/WX    TMP DP  RH WIND       PRES   REMARKS
DEFIANCE       MOSUNNY   79  50  36 E8        30.04S
FINDLAY        CLOUDY    79  56  45 N7        30.02S
TOLEDO EXPRESS CLOUDY    77  51  40 NE8       30.04R
TOLEDO EXEC    CLOUDY    77  54  44 NE8       30.05R
LIMA           CLOUDY    79  53  40 NE8       30.03S
$$

OHZ009>014-019>023-028>033-038-089-311600-
   NORTHEAST OHIO

CITY           SKY/WX    TMP DP  RH WIND       PRES   REMARKS
CLE-HOPKINS    CLOUDY    80  59  48 N9        30.03S
CLE-LAKEFRONT  CLOUDY    74  64  71 N8        30.01R
CUY CO. ARPT   NOT AVBL
LORAIN-ELYRIA  MOSUNNY   77  61  57 N8        30.03R
ASHTABULA      CLOUDY    78  59  51 N3        30.03S
AKRON-CANTON   PTSUNNY   80  60  50 CALM      30.02S
WOOSTER        MOSUNNY   79  60  52 N7        30.03S
MANSFIELD      SUNNY     78  59  51 N7        30.04R
YOUNGSTOWN     CLOUDY    77  56  48 S5        30.03S
$$

OHZ042-051>053-060>062-070>072-077>081-311600-
  SOUTHWEST OHIO

CITY           SKY/WX    TMP DP  RH WIND       PRES   REMARKS
CINC-COVINGTON PTSUNNY   83  60  45 CALM      30.02S
CINC-LUNKEN    SUNNY     79  65  62 SW5       30.01F
HAMILTON       SUNNY     82  61  48 CALM      30.02S
DAYTON         PTSUNNY   80  59  48 E3        30.03F
WRIGHT-PAT AFB SUNNY    N/A N/A N/A MISG        N/A
DAYTON GENERAL SUNNY     81  58  45 CALM      30.01F
WILMINGTON     SUNNY     83  62  49 CALM      30.02S
$$

OHZ036-037-039>041-045>050-054>059-063>069-073>076-082>088-311600-
  CENTRAL AND SOUTHEAST OHIO

CITY           SKY/WX    TMP DP  RH WIND       PRES   REMARKS
COLUMBUS       MOSUNNY   80  58  46 CALM      30.01S
OSU AIRPORT    SUNNY     80  62  54 CALM      30.01F
BOLTON FIELD   SUNNY    N/A N/A N/A CALM      30.02S
RICKENBACK AFB NOT AVBL
NEWARK         SUNNY     83  63  50 CALM      30.01S
MARION         SUNNY     81  56  42 VRB7      30.03S
LANCASTER      SUNNY     83  60  45 CALM      30.02S
ZANESVILLE     SUNNY     82  62  50 VRB6      30.02S
NEW PHILLY     SUNNY     82  61  48 SE6       30.02S
$$



USA.gov is the U.S. government's official web portal to all federal, state and local government web resources and services.